Regional Weather Roundup
Issued by NWS Sioux Falls, SD

Home | Current Version | Previous Version | Text Only | Print | Product List | Glossary On
Versions: 1 2 3 4 5 6 7 8 9 10 11 12 13 14 15 16 17 18 19 20 21 22 23 24 25 26 27 28 29 30 31 32 33 34 35 36 37 38 39 40 41 42 43 44 45 46 47 48 49 50
000
ASUS43 KFSD 062210
RWRFSD

WEATHER ROUNDUP FOR SE SOUTH DAKOTA/SW MINNESOTA/NW IOWA
NATIONAL WEATHER SERVICE SIOUX FALLS SD
500 PM CDT FRI MAY 06 2016

NOTE: "FAIR" INDICATES FEW OR NO CLOUDS BELOW 12,000 FEET WITH NO
SIGNIFICANT WEATHER AND OR OBSTRUCTIONS TO VISIBILITY.


SDZ038>040-050-052>070-062300-
SOUTHEAST SOUTH DAKOTA

CITY           SKY/WX    TMP DP  RH WIND       PRES   REMARKS
BROOKINGS      SUNNY     88  52  29 NW10      29.78F
CHAMBERLAIN    CLOUDY    89  55  31 W8        29.80F
HURON          SUNNY     87  49  26 W9        29.77F
MADISON        FAIR      86  54  32 W13G21    29.80S
MITCHELL       PTSUNNY   88  55  32 W13       29.78F
SIOUX FALLS    PTSUNNY   86  50  28 W12G18    29.78F
WINNER         FAIR      88  52  29 W5        29.82F
YANKTON        SUNNY     88  48  25 SW16      29.79F
$$

MNZ071-072-080-081-089-090-097-098-062300-
SOUTHWEST MINNESOTA

CITY           SKY/WX    TMP DP  RH WIND       PRES   REMARKS
FAIRMONT       SUNNY     88  28  11 SW26G32   29.76F
JACKSON        SUNNY     88  32  13 W20G30    29.79F
LUVERNE        SUNNY     86  45  23 SW21      29.79F
MARSHALL       MOSUNNY   91  44  19 NW17G32   29.73F
MONTEVIDEO     MOSUNNY   93  45  18 N10       29.72F
PIPESTONE      SUNNY     88  37  16 W15G23    29.79F
REDWOOD FALLS  SUNNY     90  44  20 NW15      29.70F
TRACY          SUNNY     90  46  21 W9        29.75F
WINDOM         SUNNY     88  45  22 W22G31    29.76F
WORTHINGTON    MOSUNNY   88  48  25 SW23G29   29.79F
$$

IAZ001>003-012>014-020>022-031-032-NEZ013-014-SDZ071-062300-
NORTHWEST IOWA

CITY           SKY/WX    TMP DP  RH WIND       PRES   REMARKS
CHEROKEE       SUNNY     85  47  26 SW15G26   29.82F
DENISON        SUNNY     86  43  22 SW18G26   29.84F
ESTHERVILLE    SUNNY     88  47  24 W29       29.79F
LE MARS        SUNNY     88  45  22 SW18G32   29.81F
ORANGE CITY    SUNNY     88  48  25 SW18G28   29.80F
SHELDON        SUNNY     90  45  20 SW23G31   29.78F
SIOUX CITY     SUNNY     86  52  30 SW17G24   29.82F
SPENCER        SUNNY     89  44  20 SW23      29.80F
STORM LAKE     SUNNY     86  43  22 W22G33    29.84F
$$

ABBREVIATIONS USED IN REMARKS
   TC - TEMPERATURE IN CELSIUS
  WCI - WIND CHILL INDEX
   HX - HEAT INDEX
  VSB - VISIBILITY




USA.gov is the U.S. government's official web portal to all federal, state and local government web resources and services.